Theta_e
308 308 308 308 308 306 306 307 307 307 308 307 306 304 305 308 309 309 311 311 311 311 310 310 310 310 310 310 310 309 309 308 307 306 307 308 307 306 306 306 305 305 305
309 309 309 308 309 309 308 306 307 307 307 306 306 304 307 308 309 309 310 310 309 309 309 309 309 309 309 309 309 308 308 307 307 307 308 308 307 307 308 309 309 309 309
310 309 309 309 309 309 308 307 306 307 307 306 307 305 307 308 309 310 310 309 309 308 307 306 306 307 308 309 308 308 308 309 310 309 309 309 309 309 309 309 309 310 310
310 309 310 310 309 309 308 308 307 307 307 307 306 305 307 307 308 309 309 309 308 308 308 308 308 308 308 308 308 308 308 309 309 309 309 309 309 309 309 308 307 308 310
310 310 309 309 310 310 310 309 310 309 309 306 306 306 307 307 306 307 308 309 309 309 309 309 310 310 310 310 309 308 308 308 309 308 307 308 307 308 308 308 308 309 310
310 310 310 311 311 311 311 311 310 309 308 307 307 307 308 308 308 308 308 308 309 310 310 310 309 309 309 310 310 310 310 309 308 308 308 308 308 309 310 310 309 309 310
311 311 311 311 312 312 311 311 309 308 308 308 308 309 309 309 309 309 310 309 309 309 309 309 309 308 308 308 309 310 310 310 310 310 310 309 309 310 309 309 309 308 308
311 311 312 311 309 311 310 310 309 308 308 308 308 307 306 305 307 309 309 308 308 307 307 307 308 308 309 309 309 309 309 309 310 310 310 310 310 310 309 309 309 309 310
312 312 312 310 308 307 310 310 310 310 309 310 309 308 305 305 308 310 309 309 309 309 310 310 310 309 310 310 310 308 307 308 309 310 310 310 308 308 309 310 309 308 311
312 312 311 310 310 306 306 310 311 311 309 308 306 304 304 305 306 307 309 310 310 309 309 308 308 308 308 309 309 306 306 307 307 306 305 305 306 306 307 309 310 310 309
312 311 311 311 310 309 301 306 309 311 311 310 306 304 304 303 304 306 305 305 305 307 307 308 309 309 309 307 306 306 307 307 305 304 304 304 305 301 301 301 302 303 306
311 311 311 311 312 312 310 302 305 308 309 309 309 307 304 301 302 303 304 305 306 308 309 309 308 306 305 305 305 305 305 304 303 303 302 302 303 301 300 300 302 303 306
311 311 311 311 312 312 312 309 300 300 300 304 305 303 300 299 300 302 303 305 307 308 307 305 305 305 304 304 303 304 304 304 302 301 301 301 302 302 300 300 300 299 301
312 311 311 312 311 311 311 311 306 301 299 298 297 297 297 300 302 302 303 304 307 307 307 306 306 305 305 305 303 302 301 302 302 300 300 300 300 301 300 299 299 299 298
312 311 312 312 312 312 312 311 310 305 300 303 302 300 299 302 301 302 303 304 306 306 306 306 306 305 304 304 302 301 301 301 301 300 299 300 300 300 299 298 298 298 298
312 311 312 312 312 311 309 311 310 309 304 301 302 302 301 301 302 302 302 303 304 305 305 305 305 303 302 303 301 300 300 299 300 299 298 299 299 299 299 298 298 297 297
312 312 312 312 312 309 309 310 310 309 309 306 303 301 301 302 302 301 301 301 301 302 302 303 303 302 302 300 299 297 297 297 298 298 298 298 298 299 299 297 297 297 297
311 311 312 312 310 310 310 308 309 309 308 309 308 304 301 301 303 303 300 300 300 301 301 302 301 301 299 298 297 296 293 295 297 298 297 297 297 297 298 297 297 296 296
311 312 312 312 310 310 310 308 307 307 308 308 308 307 303 302 304 304 301 300 299 300 300 300 300 299 298 297 296 293 293 295 296 297 296 296 297 297 297 297 296 296 296
312 312 312 312 311 311 309 309 306 306 307 306 308 307 303 304 304 303 301 299 299 299 300 299 298 297 297 296 294 292 292 294 295 296 296 296 296 296 297 297 296 296 296
312 312 312 312 311 311 310 308 307 306 305 304 305 306 303 303 303 302 301 300 299 299 299 298 298 297 296 294 292 291 291 293 294 295 296 295 295 296 296 296 296 296 295
312 312 311 311 311 311 311 311 308 306 306 306 304 304 303 303 303 303 302 301 299 298 298 298 297 297 295 292 291 290 290 291 294 295 295 295 295 295 296 296 295 295 295
312 312 312 311 311 311 311 311 312 310 307 306 306 303 304 303 302 302 304 302 300 299 298 298 297 297 296 294 292 290 290 290 292 294 295 295 295 295 295 295 295 295 295
312 312 311 312 311 311 311 311 312 312 311 310 306 304 303 303 303 303 303 303 301 300 299 298 298 297 296 295 293 290 290 290 290 293 294 295 295 294 294 295 295 294 294
313 313 312 312 312 311 311 311 311 311 312 311 309 306 304 302 302 302 303 304 303 300 299 298 297 297 296 295 294 291 289 289 290 292 294 295 295 294 294 294 294 294 294
313 313 312 312 312 312 311 311 311 311 311 311 311 310 307 303 303 302 302 302 304 302 300 299 298 297 296 295 294 292 290 289 289 291 293 294 294 294 294 294 294 294 294
Wind_Speed
14 14 12 13 14 14 13 11 12 11 10 10 11 11 10 12 11 13 15 15 16 15 13 12 11 9 9 8 7 7 6 3 2 1 2 4 3 4 5 4 4 4 8
14 13 12 10 13 14 14 12 11 11 9 8 11 11 9 10 11 12 13 13 13 12 10 8 8 7 8 7 6 6 6 6 2 2 2 3 3 6 8 9 9 10 12
12 11 11 13 15 14 12 12 8 10 10 8 9 9 9 10 10 11 10 10 11 10 9 8 6 5 6 6 6 6 5 4 3 2 2 5 6 9 11 11 11 11 10
11 11 11 13 12 12 10 11 11 10 10 8 8 7 7 8 8 8 8 9 10 11 11 11 11 8 7 6 5 3 3 2 3 5 5 5 6 8 10 11 15 15 15
12 12 13 12 12 11 9 9 10 10 9 10 8 8 9 8 7 7 7 8 8 9 9 8 8 7 6 5 4 4 4 4 5 5 4 4 5 7 9 9 14 17 14
11 12 14 15 15 11 8 9 9 10 10 9 11 10 10 10 9 7 6 6 7 8 9 7 6 7 7 6 5 5 4 5 5 4 4 5 7 8 10 10 12 9 5
11 12 14 16 16 14 8 9 10 10 10 11 10 10 10 9 7 6 6 5 4 5 5 5 6 7 8 8 6 6 6 7 8 10 12 11 13 13 14 15 12 11 10
10 10 13 16 15 12 11 9 8 8 7 8 9 10 10 10 7 6 6 4 4 4 6 7 8 8 7 8 9 9 8 8 8 10 13 13 14 15 17 15 15 15 17
9 10 12 14 14 12 9 7 6 6 6 7 8 9 11 13 12 8 6 5 4 4 4 5 7 7 6 7 9 10 9 7 7 5 8 10 11 11 12 12 12 8 6
8 10 11 14 11 13 9 7 5 5 5 5 6 8 9 11 11 11 8 7 6 5 3 4 5 5 5 6 5 6 10 11 8 5 4 4 5 7 7 6 5 5 5
8 8 9 11 10 12 11 7 7 5 4 5 5 6 8 9 8 9 9 8 11 9 8 6 6 4 2 2 5 7 9 9 6 8 10 9 5 8 10 10 10 9 8
6 6 10 12 11 11 10 8 7 7 6 7 7 7 8 7 6 6 8 8 11 7 6 5 5 6 5 5 6 7 6 5 7 10 11 10 7 9 10 10 11 10 8
5 7 10 10 13 13 11 8 6 6 7 7 7 8 8 6 4 5 6 6 5 2 4 7 4 4 3 5 7 7 8 8 8 10 11 10 8 6 7 8 11 13 7
7 7 9 14 14 12 11 8 7 5 6 6 6 6 5 4 6 7 6 4 2 3 3 3 2 3 4 3 4 8 10 10 7 8 10 9 7 6 6 8 13 16 14
8 8 11 14 13 16 15 11 8 7 4 4 6 6 3 5 9 9 7 5 3 4 3 3 2 2 5 6 4 8 10 11 10 8 9 8 8 7 5 7 12 13 11
10 9 12 14 15 16 18 14 7 8 8 6 5 6 6 6 7 7 7 4 3 3 4 3 2 2 5 5 5 7 9 11 11 9 8 8 8 7 4 6 10 13 10
11 12 11 13 14 18 18 13 10 6 10 11 11 9 10 8 7 7 6 6 6 6 6 4 3 2 3 4 6 9 11 11 9 7 7 8 7 6 3 5 9 12 11
12 12 13 14 14 18 14 10 7 9 9 9 10 8 8 10 10 8 7 7 7 6 5 4 2 1 3 5 8 10 10 9 7 6 6 8 7 7 5 3 7 10 9
13 13 12 14 13 16 12 8 7 9 11 12 11 9 8 8 10 9 7 6 5 4 2 2 1 3 5 7 9 9 8 7 7 6 6 7 9 8 7 2 4 7 9
13 13 13 14 13 15 10 6 7 10 12 12 11 11 8 8 8 8 8 6 5 4 4 4 4 5 7 7 8 7 7 5 6 6 6 7 9 8 7 2 4 6 8
14 13 12 12 11 10 12 6 6 8 10 13 12 10 9 10 10 10 9 8 8 7 7 5 5 6 7 7 7 7 6 6 6 7 6 6 8 9 8 3 4 5 6
15 16 15 14 13 9 10 10 9 10 12 14 14 12 12 13 13 12 11 10 10 9 8 7 6 5 6 6 7 7 7 6 6 6 6 7 7 8 8 4 4 5 6
19 17 16 15 14 13 7 8 8 8 12 13 15 13 14 16 16 15 13 12 11 11 10 10 8 6 6 7 8 7 7 7 7 7 8 7 7 6 7 5 4 5 5
24 23 21 18 15 14 13 12 9 10 14 14 15 15 15 16 16 16 15 14 13 12 13 12 11 9 7 7 9 8 8 8 7 7 9 9 7 6 5 6 5 4 4
25 26 23 20 17 15 12 13 9 9 10 15 13 15 18 16 16 16 15 16 16 15 14 15 14 12 9 8 9 9 8 7 7 7 8 8 7 7 7 5 6 4 3
24 25 25 22 19 17 16 15 15 16 14 15 15 15 16 19 18 17 15 15 17 16 15 15 15 15 12 9 9 9 9 8 8 8 8 8 8 9 8 6 5 5 5
Wind_Direction
349 357 354 8 14 16 9 6 9 15 24 34 25 15 19 33 54 60 71 83 84 84 80 81 81 77 78 80 83 84 86 98 126 213 309 330 3 5 5 353 330 293 279
343 349 357 1 8 10 8 10 16 19 22 26 21 22 39 44 51 64 80 75 73 71 72 72 75 73 75 80 88 87 87 84 93 46 344 354 347 349 344 338 328 312 300
352 5 18 16 13 11 13 17 20 18 20 15 14 35 47 54 61 70 73 66 55 50 54 56 62 70 78 78 91 104 76 52 47 14 349 347 340 345 340 338 336 333 318
5 12 16 14 12 16 27 32 30 21 16 16 27 48 55 54 62 67 66 58 56 61 65 65 67 68 60 63 76 74 35 43 38 31 20 357 338 337 337 336 341 343 341
17 22 24 17 9 15 18 18 21 15 20 31 47 64 61 60 59 57 53 57 62 58 59 64 60 45 31 33 37 40 40 38 28 17 359 334 326 332 335 329 327 339 348
2 8 13 20 17 12 22 25 31 39 50 54 63 66 62 63 56 59 52 58 60 53 53 58 57 49 48 41 25 5 347 324 318 319 315 310 306 299 303 310 318 336 329
356 9 13 12 23 29 49 52 48 55 58 60 59 58 56 57 58 57 55 67 59 47 40 51 49 40 35 32 20 356 326 305 290 277 272 273 284 296 300 301 306 302 287
357 10 12 21 26 32 45 55 63 59 51 47 44 43 44 36 35 62 78 82 69 55 49 44 38 36 28 11 0 352 334 309 287 278 284 292 291 302 291 287 292 297 301
4 15 14 13 14 23 31 34 40 45 40 34 33 35 41 43 46 54 70 77 71 55 37 29 27 11 355 342 346 352 8 2 348 320 305 316 320 317 303 281 279 288 301
4 5 10 3 358 6 5 14 3 2 19 32 27 27 30 41 39 39 40 39 28 16 358 340 316 318 329 329 333 349 354 349 352 9 6 348 2 18 18 14 318 284 281
347 358 358 358 5 1 7 351 352 333 323 329 347 2 6 5 16 14 11 11 9 342 328 330 340 319 325 34 14 356 345 342 1 5 2 357 18 37 35 24 1 323 294
338 345 336 345 347 347 347 351 325 328 316 305 300 321 334 338 340 349 350 352 348 349 43 54 72 89 86 57 29 17 6 10 10 6 2 1 13 24 30 23 7 12 19
326 329 336 346 348 340 337 319 339 337 322 303 308 313 323 330 324 323 320 326 348 51 96 116 107 87 60 46 37 24 12 5 8 13 8 3 0 357 16 24 19 12 337
318 324 339 337 349 355 343 315 282 315 1 357 328 311 321 355 349 326 300 293 249 208 175 161 124 49 20 7 23 27 22 12 9 11 6 6 4 6 12 22 15 1 347
307 317 336 345 343 341 340 327 264 265 296 350 356 351 336 358 1 2 348 317 254 205 204 205 226 354 6 4 5 16 16 11 8 5 4 4 5 5 14 22 17 5 356
299 315 330 331 342 338 333 327 289 250 257 275 299 319 323 322 345 354 3 350 327 262 262 250 262 337 350 352 352 353 356 358 356 352 357 5 4 359 4 20 16 8 359
290 304 311 322 325 331 331 320 303 277 255 261 268 280 292 297 299 315 316 316 318 283 266 250 238 306 334 349 345 342 339 339 338 341 348 359 359 354 358 17 14 5 357
282 295 302 311 323 329 323 320 294 290 282 266 268 271 288 278 281 283 306 304 291 288 250 221 239 290 319 327 333 336 337 339 339 341 351 2 2 358 347 350 12 3 354
278 288 301 310 323 330 308 288 296 291 288 280 271 273 291 269 280 266 276 296 300 289 238 210 243 300 315 320 325 331 335 337 341 345 353 0 359 351 344 322 357 358 351
260 276 288 307 325 339 315 282 288 300 295 297 269 265 277 273 266 262 271 282 278 267 244 250 284 309 315 317 321 326 332 331 340 347 344 358 2 353 341 319 348 355 348
261 271 282 300 317 339 349 292 296 297 295 302 283 261 267 262 271 270 270 275 268 265 258 262 287 309 318 320 322 323 324 321 330 341 344 356 359 355 344 336 336 334 343
258 268 279 291 302 304 348 355 304 276 282 290 293 271 258 256 262 270 265 271 274 267 263 260 276 306 320 330 327 324 324 316 306 326 335 339 348 350 344 316 334 337 342
254 262 269 275 288 289 288 333 324 316 286 285 276 281 261 265 264 267 264 261 266 267 261 257 261 284 310 325 328 322 319 318 309 306 322 318 330 336 340 325 322 334 340
253 256 256 264 272 282 283 284 290 289 291 305 276 275 267 265 271 271 267 257 257 263 260 255 253 261 284 313 322 320 318 317 314 302 308 306 296 314 315 323 298 309 325
250 251 252 257 263 265 267 272 281 286 309 291 304 270 268 265 271 273 272 259 253 255 261 259 252 255 265 294 315 318 315 311 309 300 308 305 271 296 306 285 316 271 294
255 251 250 250 252 256 264 269 274 281 283 291 287 283 277 263 262 266 267 267 254 253 257 263 256 250 255 274 303 314 312 310 306 299 293 298 288 284 295 260 279 283 267